Regional Weather Roundup
Issued by NWS

Home | Current Version | Previous Version | Graphics & Text | Print | Product List | Glossary Off
Versions: 1 2 3 4 5 6 7 8 9 10 11 12 13 14 15 16 17 18 19 20 21 22 23 24 25 26 27 28 29 30 31 32 33 34 35 36 37 38 39 40 41 42 43 44 45 46 47 48 49 50

000
ASUS43 KMPX 270210
RWRMN
WEATHER ROUNDUP FOR MINNESOTA
NATIONAL WEATHER SERVICE TWIN CITIES/CHANHASSEN MN
900 PM CDT TUE JUL 26 2016


NOTE: "FAIR" INDICATES FEW OR NO CLOUDS BELOW 12,000 FEET WITH NO
SIGNIFICANT WEATHER AND/OR OBSTRUCTIONS TO VISIBILITY. N/A MEANS
CURRENT SKY AND/OR WEATHER CONDITIONS ARE NOT AVAILABLE.

MNZ060>063-068>070-270300-
   Twin Cities Metro

CITY           SKY/WX    TMP DP  RH WIND       PRES   REMARKS
TWIN CITIES    MOCLDY    85  67  54 SW8       29.95S
ST PAUL        MOCLDY    81  67  62 S3        29.95S
CRYSTAL        CLOUDY    82  65  56 SW6       29.94S
BLAINE         MOCLDY    84  68  58 SW3       29.95S
LAKEVILLE      CLEAR     73  70  88 CALM      29.97S
EDEN PRAIRIE   CLEAR     80  68  66 SW5       29.95S
LAKEVILLE      CLEAR     73  70  88 CALM      29.97S
SOUTH ST PAUL  PTCLDY    81  67  62 SW5       29.95S
LAKE ELMO      FAIR      79  70  73 CALM      29.97S
$$
MNZ001>005-007-008-013>017-022>024-027-028-270300-
   Northwest Minnesota

CITY           SKY/WX    TMP DP  RH WIND       PRES   REMARKS
BEMIDJI        CLOUDY    73  66  78 N7        29.97R
HALLOCK        CLOUDY    72  63  73 N5        30.00R
ROSEAU         CLOUDY    70  63  78 CALM      29.99S
WARROAD        CLOUDY    75  63  64 N7        29.99S
THIEF RVR FALL CLOUDY    73  65  75 NE7       29.99S
CROOKSTON      CLOUDY    75  66  73 E3        29.97R
FOSSTON        CLOUDY    72  64  78 CALM      29.97S
DETROIT LAKES  CLOUDY    77  70  78 W5        29.98R THUNDER
MOORHEAD       CLOUDY    70  66  88 NW9       29.95F
PARK RAPIDS    CLOUDY    76  69  79 CALM      29.96R
MAHNOMEN       MOCLDY    73  67  81 S7        29.96R THUNDER
$$
MNZ006-009>011-018-025>026-270300-
   North Central Minnesota

CITY           SKY/WX    TMP DP  RH WIND       PRES   REMARKS
BAUDETTE       MOCLDY    72  61  68 N3        29.98R
FLAG ISLAND    PTCLDY    75  57  53 N14       29.99R
INTL FALLS     CLOUDY    69  58  67 NW5       29.97R
WASKISH        CLOUDY    72  64  78 N3        29.97S
BIG FORK       CLOUDY    73  66  78 CALM      29.98R
LONGVILLE      CLOUDY    72  70  94 CALM      29.97R
GRAND RAPIDS   CLOUDY    73  65  75 SE5       29.99S
CRANE LAKE     MOCLDY    64  63  94 CALM      29.98R
ORR            CLOUDY    68  63  83 CALM      29.96R
COOK           CLOUDY    70  64  83 CALM      29.98R
WALKER         FAIR      72  69  89 CALM      29.96S
$$
MNZ012-019>021-037-270300-
   Northeast Minnesota

CITY           SKY/WX    TMP DP  RH WIND       PRES   REMARKS
DULUTH         CLOUDY    74  68  81 NW5       29.97F
ELY            CLOUDY    72  63  73 CALM      29.97R
HIBBING        CLOUDY    69  64  84 N3        29.96F
EVELETH        MOCLDY    73  69  89 CALM      29.98S
DULUTH HARBOR  CLOUDY    79  72  78 W7        29.94R
TWO HARBORS    PTCLDY    79  72  78 CALM      29.93S
SILVER BAY     CLOUDY    75  70  83 CALM      29.93S
GRAND MARAIS     N/A     62  61  96 W3        29.90R
G MARAIS ARPRT CLEAR     64  57  77 CALM      29.98S
$$
MNZ029>031-032-039>041-046>048-054>057-064-270300-
   West Central Minnesota

CITY           SKY/WX    TMP DP  RH WIND       PRES   REMARKS
FERGUS FALLS   CLOUDY    72  66  83 W3        29.97S
WHEATON        CLOUDY    73  70  88 CALM      29.98S
MORRIS         CLOUDY    73  66  78 NW3       29.96S
ALEXANDRIA     CLOUDY    69  65  86 SW5       30.00R
ELBOW LAKE     FAIR      73  68  86 CALM      29.98S
WADENA         PTCLDY    70  63  78 CALM      29.97R
GLENWOOD       PTCLDY    73  72  94 W3        29.99R
APPLETON       PTCLDY    75  66  73 CALM      29.96S
BENSON         CLOUDY    73  66  78 CALM      29.97R
ORTONVILLE     CLOUDY    73  64  73 CALM      29.97S
MADISON        PTCLDY    72  66  83 N3        29.97R
WILLMAR        FAIR      75  68  78 CALM      29.98R
$$
MNZ033>034-036-042>043-049>051-058-059-270300-
   Central Minnesota

CITY           SKY/WX    TMP DP  RH WIND       PRES   REMARKS
ST CLOUD       MOCLDY    71  64  78 CALM      29.96F
SAUK CENTRE    FAIR      68  65  90 SW3       29.97R
PAYNESVILLE    PTCLDY    71  65  81 CALM      29.98R
AITKIN         CLOUDY    70  63  78 E3        29.96F
PINE RIVER     MOCLDY    66  64  94 CALM      29.99F
BRAINERD       PTCLDY    69  64  84 N3        29.96F
STAPLES        PTCLDY    70  61  73 CALM      29.97R
LONG PRAIRIE   FAIR      68  64  88 S3        29.98R
LITTLE FALLS   CLOUDY    64  63  94 CALM      29.96R
LITCHFIELD     PTCLDY    79  73  83 CALM      29.97R
BUFFALO        PTCLDY    78  66  66 NE6       29.97R
MAPLE LAKE     PTCLDY    75  66  73 CALM      29.98R
HUTCHINSON     CLOUDY    78  72  82 CALM      29.97S
$$
MNZ037-044-045-052-053-270300-
   East Central Minnesota

CITY           SKY/WX    TMP DP  RH WIND       PRES   REMARKS
PRINCETON      CLOUDY    73  63  68 CALM      29.97F
MORA           LGT RAIN  64  61  88 CALM      29.99S
CAMBRIDGE      MOCLDY    75  61  60 CALM      29.96S
RUSH CITY      CLOUDY    71  63  76 N6        29.98S
MOOSE LAKE     CLOUDY    68  61  77 SW5       29.98F
HINCKLEY       RAIN      64  64 100 CALM      29.97S
CLOQUET        CLOUDY    73  66  78 SW12      29.99R
MCGREGOR       CLOUDY    70  61  73 CALM      29.99F
$$
MNZ071>073-080-081-089-090-097-098-270300-
   Southwest Minnesota

CITY           SKY/WX    TMP DP  RH WIND       PRES   REMARKS
MONTEVIDEO     CLOUDY    73  64  73 N3        29.98S
GRANITE FALLS  PTCLDY    77  67  72 N5        29.98R
CANBY          PTCLDY    73  68  83 NE3       29.98R
MARSHALL       PTCLDY    78  70  76 S6        29.97R
REDWOOD FALLS  MOCLDY    79  68  69 S7        29.95R
OLIVIA         MOCLDY    77  70  78 SW5       29.96R
PIPESTONE      MOCLDY    77  68  73 S7        29.99S
WINDOM         PTCLDY    79  68  69 S5        29.98S
WORTHINGTON    PTCLDY    76  68  76 S8        30.00R
JACKSON        CLOUDY    77  66  69 S10       29.99F
TRACY          MOCLDY    78  70  75 S3        29.97S
SLAYTON        MOCLDY    75  68  79 S6        30.00F
$$
MNZ065>067-074>077-082>085-091>093-270300-
   South Central Minnesota

CITY           SKY/WX    TMP DP  RH WIND       PRES   REMARKS
MANKATO        PTCLDY    77  66  69 S7        29.97S
NEW ULM        CLOUDY    77  70  78 S6        29.97R
ST JAMES       CLOUDY    73  64  73 SE8       29.97S
FAIRMONT       PTCLDY    75  66  73 S8        29.98F
GLENCOE        CLEAR     79  73  81 CALM      29.96S
FARIBAULT      CLEAR     77  70  78 S5        29.98F
OWATONNA       CLEAR     75  68  78 S5        29.99S
WASECA         CLEAR     72  68  88 S6        30.00S
ALBERT LEA     CLEAR     75  70  83 CALM      30.01R
$$
MNZ078>079-086>088-094>096-270300-
   Southeast Minnesota

CITY           SKY/WX    TMP DP  RH WIND       PRES   REMARKS
ROCHESTER      CLEAR     74  71  91 S7        30.01F
RED WING       CLOUDY    81  66  61 W3        29.95S
STANTON        CLEAR     75  68  78 S3        29.96S
DODGE CENTER   CLEAR     73  70  88 SW5       30.01S
WINONA         CLEAR     79  68  69 CALM      29.97S
AUSTIN         CLEAR     75  68  78 S3        30.00S
PRESTON        CLEAR     75  68  77 S6        30.02F
$$
ABBREVIATIONS USED IN REMARKS
   TC - TEMPERATURES IN CELSIUS
  WCI - WIND CHILL INDEX
   HX - HEAT INDEX
  VSB - VISIBILITY
$$



USA.gov is the U.S. government's official web portal to all federal, state and local government web resources and services.